[[{"header":{"parameterUnit":"m.s-1","parameterCategory":1,"la1":30.2991,"la2":30.254,"lo1":-89.0895,"lo2":-89.0444,"dy":0.0017,"dx":0.0017,"nx":28,"ny":28,"refTime":"2023-04-17T21:00:00:Z","depth":0,"parameterNumber":2,"parameterNumberName":"U-component_of_WINDS"},"data":[0,0,0,0,0,0,0,0,0,0,0,0,0,0,0,0,0,0,0,0,0,0,0,0,0,0,0,0,0,0,0,0,0,0,0,0,0,0,0,0,0,0,0,0,0,0,0,0,0,0,0,0,0,0,0,0,0,0,-2.4841,-2.484,0,-2.4778,-2.4778,-2.4777,-2.4612,-2.4609,-2.4605,-2.4602,-2.4542,-2.4544,-2.4546,0,0,0,0,0,0,0,0,0,0,0,0,0,-2.4821,-2.4823,-2.4841,-2.484,-2.4839,-2.4778,-2.4778,-2.4777,-2.4613,-2.4609,-2.4604,-2.46,-2.4542,-2.4544,-2.4546,0,0,0,0,0,0,0,0,0,0,0,0,0,-2.4802,-2.4823,-2.4841,-2.475,-2.4741,-2.4779,-2.4778,-2.4776,-2.4614,-2.4609,-2.4603,-2.4598,-2.4541,-2.4544,-2.4546,-2.4668,0,0,-2.4554,-2.4555,0,0,0,0,0,0,0,0,-2.4803,-2.4803,-2.4764,-2.4756,-2.4747,-2.4697,-2.4749,-2.474,-2.4615,-2.4662,-2.4602,-2.4596,-2.4599,-2.4596,-2.4596,-2.4665,-2.4663,-2.4554,-2.4556,-2.4557,-2.4558,0,0,0,0,0,0,0,-2.4805,-2.4804,-2.4816,-2.4764,-2.4753,-2.4713,-2.4705,-2.4746,-2.4661,-2.4658,-2.4646,-2.464,-2.4593,-2.4594,-2.4594,-2.4662,-2.4554,-2.4556,-2.4558,-2.4559,-2.4827,-2.4832,0,0,0,0,0,0,-2.4818,-2.4807,-2.4818,-2.4814,-2.4762,-2.4718,-2.4708,-2.4719,-2.466,-2.4646,-2.4645,-2.4633,-2.4592,-2.4591,-2.4591,-2.4729,-2.4557,-2.4559,-2.4561,-2.4821,-2.4828,-2.4834,0,0,0,0,0,0,-2.4819,-2.4821,-2.4821,-2.4807,-2.4804,-2.4724,-2.4737,-2.472,-2.4721,-2.465,-2.4635,-2.4662,-2.4588,-2.4587,-2.4649,-2.4725,-2.456,-2.4563,-2.4815,-2.4823,-2.4831,-2.5008,0,0,0,0,0,0,-2.4819,-2.4822,-2.4867,-2.4809,-2.4805,-2.488,-2.4742,-2.4723,-2.4726,-2.4709,-2.4662,-2.4649,-2.4584,-2.4647,-2.4652,-2.4726,-2.4565,-2.4807,-2.4818,-2.4828,-2.4995,-2.5021,-2.5044,0,0,0,0,0,-2.4819,-2.4921,-2.487,-2.4873,-2.486,-2.4885,-2.4883,-2.4804,-2.4732,-2.4777,-2.4731,-2.4651,-2.4716,-2.4654,-2.4659,-2.4735,-2.4802,-2.4815,-2.4827,-2.4984,-2.5016,-2.5043,0,0,0,0,0,0,-2.4992,-2.4911,-2.4855,-2.4941,-2.4921,-2.4857,-2.4911,-2.4841,-2.4842,-2.4827,-2.4731,-2.4721,-2.4797,-2.4772,-2.4705,-2.4849,-2.4746,-2.476,-2.4863,-2.4893,-2.4917,-2.4922,-2.4567,0,0,0,0,0,-2.5039,-2.5065,-2.4994,-2.5077,-2.5069,-2.4993,-2.5001,-2.4942,-2.4918,-2.4909,-2.4867,-2.4849,-2.4864,-2.4877,-2.4887,-2.499,-2.4977,-2.5044,-2.5068,-2.5089,-2.5103,-2.5155,-2.5184,-2.4875,-2.4875,-2.4875,0,0,-2.5139,-2.5098,-2.5121,-2.5111,-2.5088,-2.5118,-2.4987,-2.5024,-2.5046,-2.4915,-2.4971,-2.494,-2.4912,-2.4995,-2.503,-2.4976,-2.5185,-2.5105,-2.5122,-2.5124,-2.5171,-2.52,-2.5226,-2.4884,-2.4882,-2.4881,0,0,-2.5336,-2.5308,-2.5373,-2.5353,-2.5319,-2.5267,-2.5283,-2.523,-2.5204,-2.5258,-2.516,-2.5185,-2.5214,-2.5198,-2.5194,-2.5383,-2.5309,-2.5389,-2.5518,-2.557,-2.5594,-2.5615,-2.5683,-2.5709,-2.5403,-2.5404,-2.5404,0,-2.5465,-2.5505,-2.5416,-2.5459,-2.5458,-2.5338,-2.5405,-2.5389,-2.5363,-2.5365,-2.5305,-2.5338,-2.5311,-2.5389,-2.5435,-2.5435,-2.5451,-2.5395,-2.5597,-2.5618,-2.5636,-2.57,-2.5726,-2.5414,-2.5412,-2.5411,-2.541,0,-2.5665,-2.5694,-2.5751,-2.5726,-2.573,-2.5785,-2.5706,-2.5721,-2.5662,-2.5616,-2.5673,-2.5636,-2.5637,-2.565,-2.5593,-2.572,-2.5688,-2.5614,-2.5509,-2.5677,-2.5735,-2.5759,-2.5428,-2.5424,-2.5421,-2.5419,0,0,-2.5971,-2.5894,-2.5917,-2.5904,-2.5857,-2.5879,-2.5928,-2.5927,-2.5943,-2.5928,-2.5967,-2.5994,-2.5925,-2.592,-2.586,-2.5906,-2.6059,-2.5826,-2.5824,-2.5871,-2.6196,-2.6253,-2.6283,-2.6008,-2.6012,-2.6016,-2.6199,0,-2.6157,-2.6236,-2.6157,-2.6252,-2.6278,-2.6164,-2.6207,-2.6184,-2.6142,-2.6159,-2.6113,-2.6134,-2.6041,-2.6037,-2.6077,-2.6032,-2.6123,-2.6017,-2.6046,-2.6048,-2.6057,-2.6313,-2.6373,-2.6548,-2.6221,-2.6225,-2.6228,0,-2.6385,-2.6379,-2.6477,-2.6423,-2.6431,-2.6471,-2.6463,-2.648,-2.6452,-2.6418,-2.6413,-2.6339,-2.6384,-2.628,-2.6342,-2.6272,-2.6278,-2.6257,-2.6262,-2.6263,-2.6149,-2.6322,-2.6601,-2.6628,-2.6263,-2.626,-2.6257,0,-2.66,-2.6616,-2.6675,-2.6668,-2.6607,-2.6637,-2.6614,-2.6579,-2.6584,-2.6577,-2.6579,-2.6579,-2.658,-2.6581,-2.651,-2.644,-2.6581,-2.6471,-2.6555,-2.6558,-2.6591,-2.6591,-2.6877,-2.6594,-2.6594,-2.6594,-2.6593,0,-2.6817,-2.6882,-2.6771,-2.6808,-2.6877,-2.6785,-2.6856,-2.6821,-2.6791,-2.682,-2.6722,-2.6751,-2.6654,-2.6674,-2.6618,-2.6678,-2.6679,-2.6654,-2.6638,-2.6663,-2.6667,-2.6667,-2.6654,-2.66,-2.6599,-2.6598,-2.6596,0,-2.7069,-2.6997,-2.7055,-2.6992,-2.6977,-2.7031,-2.6977,-2.7009,-2.696,-2.6998,-2.7002,-2.6926,-2.6944,-2.6872,-2.6878,-2.684,-2.6929,-2.6893,-2.6939,-2.6928,-2.7017,-2.701,-2.7316,-2.7351,-2.7045,-2.7048,-2.7051,0,-2.7213,-2.7259,-2.72,-2.7211,-2.7192,-2.7212,-2.7215,-2.7127,-2.7134,-2.7104,-2.7141,-2.715,-2.7153,-2.7187,-2.7133,-2.7137,-2.7101,-2.7207,-2.7101,-2.7124,-2.7103,-2.7102,-2.7106,-2.723,-2.7234,-2.7237,-2.724,0,-2.7476,-2.7438,-2.7445,-2.744,-2.7446,-2.7439,-2.7424,-2.744,-2.7344,-2.7358,-2.7374,-2.7376,-2.7381,-2.7392,-2.7384,-2.7361,-2.7286,-2.7273,-2.7293,-2.732,-2.7344,-2.7333,-2.7001,-2.7267,-2.7264,-2.7262,-2.7261,-2.726,-2.7678,-2.7714,-2.7678,-2.7689,-2.7668,-2.7657,-2.7684,-2.7637,-2.7649,-2.7645,-2.7592,-2.7619,-2.7588,-2.757,-2.7553,-2.7573,-2.7524,-2.7553,-2.756,-2.7569,-2.7584,-2.734,-2.7572,-2.7571,-2.757,-2.7569,-2.7569,0,-2.7937,-2.7907,-2.7918,-2.79,-2.791,-2.7835,-2.7815,-2.7828,-2.7852,-2.7829,-2.7833,-2.7852,-2.7861,-2.7808,-2.781,-2.7837,-2.7802,-2.784,-2.7838,-2.7834,-2.7629,-2.7611,-2.7868,-2.7868,-2.7868,-2.7868,-2.7868,-2.7868,-2.8072,-2.8129,-2.8086,-2.8131,-2.8101,-2.8125,-2.812,-2.8109,-2.809,-2.8114,-2.8121,-2.8085,-2.805,-2.8049,-2.8055,-2.8039,-2.8045,-2.8095,-2.8068,-2.7878,-2.7848,-2.7821,-2.7804,-2.8097,-2.8098,-2.8271,-2.8273,-2.8274]},{"header":{"parameterUnit":"m.s-1","parameterCategory":1,"la1":30.2991,"la2":30.254,"lo1":-89.0895,"lo2":-89.0444,"dy":0.0017,"dx":0.0017,"nx":28,"ny":28,"refTime":"2023-04-17T21:00:00:Z","depth":0,"parameterNumber":3,"parameterNumberName":"V-component_of_WINDS"},"data":[0,0,0,0,0,0,0,0,0,0,0,0,0,0,0,0,0,0,0,0,0,0,0,0,0,0,0,0,0,0,0,0,0,0,0,0,0,0,0,0,0,0,0,0,0,0,0,0,0,0,0,0,0,0,0,0,0,0,-1.5238,-1.524,0,-1.5367,-1.5369,-1.537,-1.5435,-1.5435,-1.5435,-1.5435,-1.5565,-1.5569,-1.5572,0,0,0,0,0,0,0,0,0,0,0,0,0,-1.5046,-1.5049,-1.5238,-1.524,-1.5242,-1.5367,-1.5369,-1.5371,-1.5435,-1.5435,-1.5435,-1.5435,-1.5564,-1.5568,-1.5572,0,0,0,0,0,0,0,0,0,0,0,0,0,-1.5147,-1.505,-1.5238,-1.5289,-1.5294,-1.5367,-1.5369,-1.5371,-1.5435,-1.5435,-1.5435,-1.5435,-1.5563,-1.5568,-1.5573,-1.5604,0,0,-1.5589,-1.5591,0,0,0,0,0,0,0,0,-1.5142,-1.5154,-1.528,-1.5285,-1.5292,-1.5385,-1.5349,-1.5449,-1.5435,-1.5381,-1.5435,-1.5435,-1.5505,-1.5515,-1.5539,-1.561,-1.5616,-1.5589,-1.5592,-1.5595,-1.5596,0,0,0,0,0,0,0,-1.5134,-1.5149,-1.5289,-1.5281,-1.5289,-1.5304,-1.5319,-1.5368,-1.5441,-1.5386,-1.5391,-1.5405,-1.5508,-1.5534,-1.5543,-1.5618,-1.5589,-1.5594,-1.5597,-1.5599,-1.5721,-1.5721,0,0,0,0,0,0,-1.5119,-1.5143,-1.5285,-1.5293,-1.5215,-1.5308,-1.5324,-1.5355,-1.5441,-1.5454,-1.5405,-1.5408,-1.5525,-1.5537,-1.5547,-1.559,-1.5595,-1.5599,-1.5602,-1.5721,-1.5721,-1.5722,0,0,0,0,0,0,-1.5115,-1.5131,-1.528,-1.522,-1.524,-1.5311,-1.5345,-1.5358,-1.5383,-1.5456,-1.5469,-1.5418,-1.5526,-1.554,-1.559,-1.5596,-1.5602,-1.5606,-1.5721,-1.5721,-1.5721,-1.5675,0,0,0,0,0,0,-1.5109,-1.513,-1.5143,-1.5219,-1.5243,-1.5321,-1.5346,-1.536,-1.5392,-1.5397,-1.5471,-1.5483,-1.5527,-1.5582,-1.5595,-1.5603,-1.5611,-1.5721,-1.5721,-1.5721,-1.5677,-1.5674,-1.5672,0,0,0,0,0,-1.5102,-1.5124,-1.5143,-1.516,-1.5261,-1.5321,-1.5334,-1.5384,-1.5392,-1.5406,-1.5452,-1.5481,-1.5593,-1.5586,-1.5602,-1.5611,-1.5721,-1.5721,-1.5721,-1.5678,-1.5674,-1.5672,0,0,0,0,0,0,-1.5046,-1.5135,-1.5157,-1.5205,-1.5255,-1.5332,-1.535,-1.5379,-1.5427,-1.5429,-1.5489,-1.5505,-1.5549,-1.5585,-1.5576,-1.5646,-1.5659,-1.5663,-1.5621,-1.5618,-1.5616,-1.5606,-1.5615,0,0,0,0,0,-1.5039,-1.5081,-1.5157,-1.5191,-1.5216,-1.5278,-1.5306,-1.534,-1.5394,-1.5416,-1.5466,-1.5517,-1.5563,-1.5593,-1.564,-1.5682,-1.5699,-1.5696,-1.5693,-1.5691,-1.5693,-1.5718,-1.5718,-1.5723,-1.5723,-1.5723,0,0,-1.5026,-1.508,-1.5102,-1.5182,-1.5224,-1.5266,-1.5296,-1.5339,-1.537,-1.5422,-1.5472,-1.5511,-1.5571,-1.5617,-1.564,-1.5649,-1.5696,-1.5691,-1.5689,-1.5693,-1.5718,-1.5718,-1.5717,-1.5723,-1.5723,-1.5723,0,0,-1.5022,-1.5067,-1.5101,-1.5144,-1.5208,-1.525,-1.5257,-1.533,-1.5358,-1.5409,-1.5449,-1.5487,-1.5566,-1.5607,-1.5639,-1.565,-1.5678,-1.5664,-1.565,-1.5674,-1.5674,-1.5674,-1.5678,-1.5679,-1.5666,-1.5666,-1.5665,0,-1.4997,-1.5062,-1.5115,-1.5156,-1.5189,-1.5239,-1.5273,-1.5311,-1.5387,-1.5409,-1.5418,-1.5518,-1.5562,-1.5618,-1.5621,-1.5645,-1.5656,-1.5656,-1.567,-1.567,-1.5671,-1.5675,-1.5677,-1.5663,-1.5664,-1.5664,-1.5664,0,-1.5028,-1.5072,-1.5092,-1.5165,-1.52,-1.5237,-1.5295,-1.5325,-1.5355,-1.5396,-1.5447,-1.5502,-1.556,-1.5576,-1.5606,-1.5637,-1.564,-1.5658,-1.5673,-1.5667,-1.5673,-1.5675,-1.566,-1.5661,-1.5662,-1.5662,0,0,-1.4994,-1.5095,-1.5101,-1.5135,-1.5209,-1.5244,-1.5283,-1.5341,-1.5365,-1.5415,-1.545,-1.5515,-1.5532,-1.5568,-1.5603,-1.5624,-1.5629,-1.564,-1.5642,-1.5636,-1.5666,-1.5652,-1.5653,-1.5648,-1.5649,-1.5649,-1.5661,0,-1.5001,-1.5074,-1.5123,-1.5176,-1.5218,-1.5265,-1.5299,-1.5348,-1.5386,-1.5426,-1.5469,-1.5514,-1.5534,-1.5556,-1.5578,-1.5624,-1.5636,-1.5623,-1.568,-1.5682,-1.5664,-1.5656,-1.5642,-1.565,-1.5663,-1.5664,-1.5664,0,-1.502,-1.5069,-1.5127,-1.5197,-1.5216,-1.5245,-1.5302,-1.534,-1.5396,-1.5423,-1.5462,-1.5498,-1.5541,-1.5551,-1.5611,-1.5601,-1.5627,-1.5653,-1.5655,-1.5662,-1.5673,-1.5664,-1.5654,-1.5655,-1.5668,-1.5668,-1.5667,0,-1.4989,-1.507,-1.5115,-1.5142,-1.5224,-1.5244,-1.5279,-1.5335,-1.5367,-1.5416,-1.5437,-1.549,-1.552,-1.556,-1.5609,-1.5612,-1.5664,-1.5678,-1.5687,-1.5685,-1.5696,-1.5694,-1.5691,-1.5712,-1.5712,-1.5712,-1.5712,0,-1.4992,-1.5026,-1.5102,-1.513,-1.5169,-1.5224,-1.526,-1.5299,-1.5349,-1.5385,-1.5428,-1.5461,-1.5523,-1.5564,-1.5602,-1.5646,-1.5658,-1.5681,-1.5691,-1.5677,-1.5674,-1.5695,-1.5696,-1.5712,-1.5712,-1.5712,-1.5712,0,-1.4964,-1.5017,-1.5069,-1.5143,-1.5162,-1.5187,-1.525,-1.5279,-1.5319,-1.5364,-1.5377,-1.5441,-1.5491,-1.5543,-1.5611,-1.5636,-1.5678,-1.5692,-1.5659,-1.5665,-1.567,-1.5669,-1.568,-1.5684,-1.5702,-1.5702,-1.5701,0,-1.4963,-1.499,-1.5066,-1.5094,-1.5128,-1.5171,-1.5203,-1.5258,-1.529,-1.5356,-1.5376,-1.5429,-1.5474,-1.5551,-1.5603,-1.5654,-1.567,-1.567,-1.5678,-1.5663,-1.567,-1.5668,-1.5671,-1.5667,-1.5667,-1.5667,-1.5666,0,-1.4955,-1.498,-1.5025,-1.5079,-1.5117,-1.5162,-1.5209,-1.5229,-1.5292,-1.5326,-1.5377,-1.5412,-1.5481,-1.5532,-1.559,-1.5626,-1.5657,-1.5663,-1.5668,-1.5655,-1.5635,-1.5646,-1.5653,-1.5663,-1.5663,-1.5663,-1.5664,-1.5664,-1.4941,-1.4967,-1.5025,-1.5074,-1.5115,-1.5157,-1.5188,-1.5232,-1.5276,-1.5336,-1.5365,-1.5416,-1.5472,-1.5553,-1.5587,-1.5628,-1.5637,-1.5644,-1.5646,-1.5647,-1.5643,-1.5628,-1.5639,-1.5639,-1.5639,-1.5639,-1.5639,0,-1.4936,-1.4975,-1.5019,-1.5083,-1.5122,-1.5147,-1.52,-1.523,-1.5275,-1.5324,-1.5367,-1.5426,-1.5476,-1.5532,-1.5586,-1.5607,-1.5623,-1.562,-1.5619,-1.5626,-1.5632,-1.5622,-1.5606,-1.5606,-1.5606,-1.5606,-1.5606,-1.5606,-1.4937,-1.4983,-1.5014,-1.508,-1.5119,-1.517,-1.5198,-1.5237,-1.5276,-1.534,-1.5382,-1.5418,-1.547,-1.5528,-1.5575,-1.559,-1.5608,-1.56,-1.5619,-1.5623,-1.5626,-1.5629,-1.562,-1.5604,-1.5604,-1.5611,-1.5611,-1.5611]}]]